Location: D�nning
(49.2479°N, 12.8491°E)
Time: 04:53:48
(UTC+00:00)

Resurs 01 Rocket - Pass Details

Date: 18 September 2020
Orbit: 633 x 645 km, 98.0° (Epoch: 29 October)

Event Time Altitude Azimuth Distance (km) Brightness Sun altitude
Exits shadow 19:19:14 51° 118° (ESE) 820 1.7 -20.3°
Maximum altitude 19:20:04 61° 72° (ENE) 737 1.7 -20.5°
Drops below altitude 10° 19:24:29 10° 353° (N) 2,054 4.7 -21.1°
Sets 19:26:43 0° 350° (N) 2,967 5.6 -21.4°
